Location: Artiguedieu
(43.5000°N, 0.5454°E)
Time: 11:04:56
(UTC+00:00)

Cosmos 2184 Rocket - Pass Details

Date: 06 December 2020
Orbit: 958 x 1003 km, 82.9° (Epoch: 27 January)

Event Time Altitude Azimuth Distance (km) Brightness Sun altitude
Rises 05:22:33 0° 211° (SSW) 3,695 6.8 -19.9°
Reaches altitude 10° 05:25:15 10° 219° (SW) 2,756 6.1 -19.5°
Maximum altitude 05:31:05 38° 286° (WNW) 1,489 4.4 -18.4°
Drops below altitude 10° 05:36:59 10° 353° (N) 2,786 6.2 -17.4°
Sets 05:39:45 0° 2° (N) 3,740 6.9 -16.9°
